Terminal Aerodrome Forecast
Issued by NWS

Home | Current Version | Previous Version | Text Only | Print | Product List | Glossary On
Versions: 1 2 3 4 5 6 7 8 9 10 11 12 13 14 15 16 17 18 19 20 21 22 23 24 25 26 27 28 29 30 31
000
FTUS41 KOKX 260821 AAA
TAFGON
TAF AMD
KGON 260821Z 2608/2706 07012G20KT 2SM -RA BR OVC005
     FM261000 07011KT 1/2SM -RADZ FG BKN002 OVC004
     FM261600 07008KT 3SM BR OVC004
     FM262300 05004KT 1SM BR OVC004
     FM270100 VRB03KT 1/2SM FG OVC003=

USA.gov is the U.S. government's official web portal to all federal, state and local government web resources and services.